Location: Bacharowice
(49.9333°N, 19.5833°E)
Time: 09:22:21
(UTC+00:00)

Cosmos 1515 Rocket - Pass Details

Date: 11 May 2021
Orbit: 606 x 630 km, 82.5° (Epoch: 21 June)

Event Time Altitude Azimuth Distance (km) Brightness Sun altitude
Exits shadow 20:29:37 10° 207° (SSW) 1,988 5.9 -16.3°
Maximum altitude 20:33:55 52° 284° (WNW) 775 4.3 -16.6°
Drops below altitude 10° 20:38:14 10° 1° (N) 1,991 7.0 -17.0°
Sets 20:40:31 0° 7° (N) 2,897 7.9 -17.2°
